Location: Baumgartsau
(48.4586°N, 14.0864°E)
Time: 13:48:38
(UTC+00:00)

BREEZE M DEB (TANK) - Visible Passes

Search period start: 06 August 2020 00:00
Search period end: 16 August 2020 00:00
Orbit: 304 x 11871 km, 49.5° (Epoch: 05 August)

Date Brightness Start Highest point End Pass type
(mag) Time Alt. Az. Time Alt. Az. Time Alt. Az.
06 Aug 5.3 03:06:15 10° SW 03:32:12 62° SSE 03:38:32 10° ENE visible
07 Aug 5.8 02:07:31 13° SSW 02:34:18 51° SSE 02:42:00 10° ENE visible
08 Aug 6.4 01:13:25 18° SSW 01:35:57 42° SE 01:45:13 10° ENE visible
09 Aug 6.9 00:19:13 21° S 00:37:09 33° SE 00:48:03 10° E visible
09 Aug 7.3 23:24:58 20° SSE 23:38:01 25° SE 23:50:09 10° E visible
10 Aug 4.9 03:20:24 10° WSW 03:44:46 75° SSE 03:50:36 10° ENE visible
10 Aug 7.5 22:30:39 16° SE 22:38:48 18° SE 22:50:40 10° E visible
11 Aug 5.4 02:21:36 14° SW 02:47:00 63° SSE 02:54:06 10° ENE visible
11 Aug 7.8 21:36:15 10° SE 21:39:45 10° ESE 21:43:01 10° ESE visible
12 Aug 6.0 01:27:11 21° SSW 01:48:51 52° SSE 01:57:27 10° ENE visible
13 Aug 6.5 00:32:42 26° S 00:50:12 43° SE 01:00:34 10° ENE visible
13 Aug 7.0 23:38:10 27° SSE 23:51:06 34° SE 00:03:15 10° E visible
14 Aug 7.3 22:43:33 24° SSE 22:51:44 26° SE 23:05:10 10° E visible
15 Aug 5.1 02:34:28 13° SW 02:59:20 75° SSE 03:05:53 10° ENE visible
15 Aug 7.5 21:48:53 18° SE 21:52:21 18° SE 22:05:28 10° E visible
